Time,TemperatureF,DewpointF,PressureIn,WindDirection,WindDirectionDegrees,WindSpeedMPH,WindSpeedGustMPH,Humidity,HourlyPrecipIn,Conditions,Clouds,dailyrainin,SolarRadiationWatts/m^2,SoftwareType,DateUTC
2013-07-09 00:01:00,58.0,48.0,-100.00,NE,44,3.0,7.0,69,0.00,,,0.10,0.000000,,2013-07-09 06:01:00,
2013-07-09 00:11:00,58.0,48.0,-100.00,NE,44,3.0,7.0,69,0.00,,,0.10,0.000000,,2013-07-09 06:11:00,
2013-07-09 00:22:00,58.0,48.0,-100.00,NE,44,3.0,7.0,69,0.00,,,0.10,0.000000,,2013-07-09 06:22:00,
2013-07-09 00:30:00,54.0,46.0,-100.00,NNW,335,2.0,8.0,74,0.00,,,0.10,0.000000,,2013-07-09 06:30:00,
2013-07-09 00:53:00,54.0,46.0,-100.00,NNW,335,2.0,8.0,74,0.00,,,0.10,0.000000,,2013-07-09 06:53:00,
2013-07-09 01:02:00,54.0,46.0,-100.00,NNW,335,2.0,8.0,74,0.00,,,0.10,0.000000,,2013-07-09 07:02:00,
2013-07-09 01:11:00,54.0,46.0,-100.00,NNW,335,2.0,8.0,74,0.00,,,0.10,0.000000,,2013-07-09 07:11:00,
2013-07-09 01:22:00,54.0,46.0,-100.00,NNW,335,2.0,8.0,74,0.00,,,0.10,0.000000,,2013-07-09 07:22:00,
2013-07-09 01:30:00,53.0,48.0,-100.00,North,351,2.0,4.0,84,0.00,,,0.10,0.000000,,2013-07-09 07:30:00,
2013-07-09 02:01:00,53.0,48.0,-100.00,North,351,2.0,4.0,84,0.00,,,0.10,0.000000,,2013-07-09 08:01:00,
2013-07-09 02:11:00,53.0,48.0,-100.00,North,351,2.0,4.0,84,0.00,,,0.10,0.000000,,2013-07-09 08:11:00,
2013-07-09 02:22:00,53.0,48.0,-100.00,North,351,2.0,4.0,84,0.00,,,0.10,0.000000,,2013-07-09 08:22:00,
2013-07-09 02:30:00,53.0,49.0,-100.00,West,274,3.0,7.0,85,0.00,,,0.10,0.000000,,2013-07-09 08:30:00,
2013-07-09 02:52:00,53.0,49.0,-100.00,West,274,3.0,7.0,85,0.00,,,0.10,0.000000,,2013-07-09 08:52:00,
2013-07-09 03:02:00,53.0,49.0,-100.00,West,274,3.0,7.0,85,0.00,,,0.10,0.000000,,2013-07-09 09:02:00,
2013-07-09 03:11:00,53.0,49.0,-100.00,West,274,3.0,7.0,85,0.00,,,0.10,0.000000,,2013-07-09 09:11:00,
2013-07-09 03:22:00,53.0,49.0,-100.00,West,274,3.0,7.0,85,0.00,,,0.10,0.000000,,2013-07-09 09:22:00,
2013-07-09 03:30:00,53.0,49.0,-100.00,West,264,5.0,7.0,85,0.00,,,0.04,0.000000,,2013-07-09 09:30:00,
2013-07-09 03:53:00,53.0,49.0,-100.00,West,264,5.0,7.0,85,0.00,,,0.04,0.000000,,2013-07-09 09:53:00,
2013-07-09 04:01:00,53.0,49.0,-100.00,West,264,5.0,7.0,85,0.00,,,0.04,0.000000,,2013-07-09 10:01:00,
2013-07-09 04:11:00,53.0,49.0,-100.00,West,264,5.0,7.0,85,0.00,,,0.04,0.000000,,2013-07-09 10:11:00,
2013-07-09 04:22:00,53.0,49.0,-100.00,West,264,5.0,7.0,85,0.00,,,0.04,0.000000,,2013-07-09 10:22:00,
2013-07-09 04:30:00,50.0,46.0,-100.00,WSW,257,4.0,7.0,85,0.00,,,0.03,0.000000,,2013-07-09 10:30:00,
2013-07-09 05:01:00,50.0,46.0,-100.00,WSW,257,4.0,7.0,85,0.00,,,0.03,0.000000,,2013-07-09 11:01:00,
2013-07-09 05:11:00,50.0,46.0,-100.00,WSW,257,4.0,7.0,85,0.00,,,0.03,0.000000,,2013-07-09 11:11:00,
2013-07-09 05:22:00,50.0,46.0,-100.00,WSW,257,4.0,7.0,85,0.00,,,0.03,0.000000,,2013-07-09 11:22:00,
2013-07-09 05:30:00,50.0,46.0,-100.00,WNW,294,3.0,9.0,86,0.00,,,0.03,0.000000,,2013-07-09 11:30:00,
2013-07-09 05:53:00,50.0,46.0,-100.00,WNW,294,3.0,9.0,86,0.00,,,0.03,0.000000,,2013-07-09 11:53:00,
2013-07-09 06:02:00,50.0,46.0,-100.00,WNW,294,3.0,9.0,86,0.00,,,0.03,0.000000,,2013-07-09 12:02:00,
2013-07-09 06:11:00,50.0,46.0,-100.00,WNW,294,3.0,9.0,86,0.00,,,0.03,0.000000,,2013-07-09 12:11:00,
2013-07-09 06:22:00,50.0,46.0,-100.00,WNW,294,3.0,9.0,86,0.00,,,0.03,0.000000,,2013-07-09 12:22:00,
2013-07-09 06:30:00,49.0,47.0,-100.00,WNW,288,4.0,6.0,93,0.00,,,0.03,14.000000,,2013-07-09 12:30:00,
2013-07-09 06:52:00,49.0,47.0,-100.00,WNW,288,4.0,6.0,93,0.00,,,0.03,14.000000,,2013-07-09 12:52:00,
2013-07-09 07:01:00,49.0,47.0,-100.00,WNW,288,4.0,6.0,93,0.00,,,0.03,14.000000,,2013-07-09 13:01:00,
2013-07-09 07:11:00,49.0,47.0,-100.00,WNW,288,4.0,6.0,93,0.00,,,0.03,14.000000,,2013-07-09 13:11:00,
2013-07-09 07:21:00,49.0,47.0,-100.00,WNW,288,4.0,6.0,93,0.00,,,0.03,14.000000,,2013-07-09 13:21:00,
2013-07-09 07:30:00,56.0,50.0,-100.00,WNW,298,6.0,8.0,80,0.00,,,0.03,132.000000,,2013-07-09 13:30:00,
2013-07-09 07:53:00,56.0,50.0,-100.00,WNW,298,6.0,8.0,80,0.00,,,0.03,132.000000,,2013-07-09 13:53:00,
2013-07-09 08:01:00,56.0,50.0,-100.00,WNW,298,6.0,8.0,80,0.00,,,0.03,132.000000,,2013-07-09 14:01:00,
2013-07-09 08:11:00,56.0,50.0,-100.00,WNW,298,6.0,8.0,80,0.00,,,0.03,132.000000,,2013-07-09 14:11:00,
2013-07-09 08:22:00,56.0,50.0,-100.00,WNW,298,6.0,8.0,80,0.00,,,0.03,132.000000,,2013-07-09 14:22:00,
2013-07-09 08:30:00,61.0,52.0,-100.00,WSW,243,6.0,9.0,71,0.00,,,0.03,325.000000,,2013-07-09 14:30:00,
2013-07-09 09:01:00,61.0,52.0,-100.00,WSW,243,6.0,9.0,71,0.00,,,0.03,325.000000,,2013-07-09 15:01:00,
2013-07-09 09:11:00,61.0,52.0,-100.00,WSW,243,6.0,9.0,71,0.00,,,0.03,325.000000,,2013-07-09 15:11:00,
2013-07-09 09:22:00,61.0,52.0,-100.00,WSW,243,6.0,9.0,71,0.00,,,0.03,325.000000,,2013-07-09 15:22:00,
2013-07-09 09:30:00,70.0,54.0,-100.00,WSW,240,4.0,8.0,56,0.00,,,0.02,528.000000,,2013-07-09 15:30:00,
2013-07-09 10:01:00,70.0,54.0,-100.00,WSW,240,4.0,8.0,56,0.00,,,0.02,528.000000,,2013-07-09 16:01:00,
2013-07-09 10:11:00,70.0,54.0,-100.00,WSW,240,4.0,8.0,56,0.00,,,0.02,528.000000,,2013-07-09 16:11:00,
2013-07-09 10:22:00,70.0,54.0,-100.00,WSW,240,4.0,8.0,56,0.00,,,0.02,528.000000,,2013-07-09 16:22:00,
2013-07-09 10:30:00,75.0,48.0,-100.00,SSE,159,3.0,8.0,39,0.00,,,0.02,725.000000,,2013-07-09 16:30:00,
2013-07-09 11:02:00,75.0,48.0,-100.00,SSE,159,3.0,8.0,39,0.00,,,0.02,725.000000,,2013-07-09 17:02:00,
2013-07-09 11:11:00,75.0,48.0,-100.00,SSE,159,3.0,8.0,39,0.00,,,0.02,725.000000,,2013-07-09 17:11:00,
2013-07-09 11:22:00,75.0,48.0,-100.00,SSE,159,3.0,8.0,39,0.00,,,0.02,725.000000,,2013-07-09 17:22:00,
2013-07-09 11:30:00,76.0,42.0,-100.00,ENE,77,7.0,11.0,30,0.00,,,0.02,882.000000,,2013-07-09 17:30:00,
2013-07-09 11:53:00,76.0,42.0,-100.00,ENE,77,7.0,11.0,30,0.00,,,0.02,882.000000,,2013-07-09 17:53:00,
2013-07-09 12:01:00,76.0,42.0,-100.00,ENE,77,7.0,11.0,30,0.00,,,0.02,882.000000,,2013-07-09 18:01:00,
2013-07-09 12:11:00,76.0,42.0,-100.00,ENE,77,7.0,11.0,30,0.00,,,0.02,882.000000,,2013-07-09 18:11:00,
2013-07-09 12:22:00,76.0,42.0,-100.00,ENE,77,7.0,11.0,30,0.00,,,0.02,882.000000,,2013-07-09 18:22:00,
2013-07-09 12:30:00,79.0,43.0,-100.00,SSW,196,4.0,10.0,28,0.00,,,0.02,1024.000000,,2013-07-09 18:30:00,
2013-07-09 12:52:00,79.0,43.0,-100.00,SSW,196,4.0,10.0,28,0.00,,,0.02,1024.000000,,2013-07-09 18:52:00,
2013-07-09 13:01:00,79.0,43.0,-100.00,SSW,196,4.0,10.0,28,0.00,,,0.02,1024.000000,,2013-07-09 19:01:00,
2013-07-09 13:11:00,79.0,43.0,-100.00,SSW,196,4.0,10.0,28,0.00,,,0.02,1024.000000,,2013-07-09 19:11:00,
2013-07-09 13:22:00,79.0,43.0,-100.00,SSW,196,4.0,10.0,28,0.00,,,0.02,1024.000000,,2013-07-09 19:22:00,
2013-07-09 13:30:00,81.0,42.0,-100.00,NW,319,6.0,10.0,25,0.00,,,0.02,1102.000000,,2013-07-09 19:30:00,
2013-07-09 14:01:00,81.0,42.0,-100.00,NW,319,6.0,10.0,25,0.00,,,0.02,1102.000000,,2013-07-09 20:01:00,
2013-07-09 14:11:00,81.0,42.0,-100.00,NW,319,6.0,10.0,25,0.00,,,0.02,1102.000000,,2013-07-09 20:11:00,
2013-07-09 14:21:00,81.0,42.0,-100.00,NW,319,6.0,10.0,25,0.00,,,0.02,1102.000000,,2013-07-09 20:21:00,
2013-07-09 14:30:00,84.0,40.0,-100.00,ENE,72,8.0,15.0,21,0.00,,,0.00,1123.000000,,2013-07-09 20:30:00,
2013-07-09 15:01:00,84.0,40.0,-100.00,ENE,72,8.0,15.0,21,0.00,,,0.00,1123.000000,,2013-07-09 21:01:00,
2013-07-09 15:11:00,84.0,40.0,-100.00,ENE,72,8.0,15.0,21,0.00,,,0.00,1123.000000,,2013-07-09 21:11:00,
2013-07-09 15:22:00,84.0,40.0,-100.00,ENE,72,8.0,15.0,21,0.00,,,0.00,1123.000000,,2013-07-09 21:22:00,
2013-07-09 15:30:00,86.0,39.0,-100.00,NW,314,5.0,13.0,19,0.00,,,0.00,1082.000000,,2013-07-09 21:30:00,
2013-07-09 15:52:00,86.0,39.0,-100.00,NW,314,5.0,13.0,19,0.00,,,0.00,1082.000000,,2013-07-09 21:52:00,
2013-07-09 16:01:00,86.0,39.0,-100.00,NW,314,5.0,13.0,19,0.00,,,0.00,1082.000000,,2013-07-09 22:01:00,
2013-07-09 16:11:00,86.0,39.0,-100.00,NW,314,5.0,13.0,19,0.00,,,0.00,1082.000000,,2013-07-09 22:11:00,
2013-07-09 16:22:00,86.0,39.0,-100.00,NW,314,5.0,13.0,19,0.00,,,0.00,1082.000000,,2013-07-09 22:22:00,
2013-07-09 16:30:00,86.0,38.0,-100.00,East,86,11.0,16.0,18,0.00,,,0.00,987.000000,,2013-07-09 22:30:00,
2013-07-09 16:53:00,86.0,38.0,-100.00,East,86,11.0,16.0,18,0.00,,,0.00,987.000000,,2013-07-09 22:53:00,
2013-07-09 17:02:00,86.0,38.0,-100.00,East,86,11.0,16.0,18,0.00,,,0.00,987.000000,,2013-07-09 23:02:00,
2013-07-09 17:11:00,86.0,38.0,-100.00,East,86,11.0,16.0,18,0.00,,,0.00,987.000000,,2013-07-09 23:11:00,
2013-07-09 17:22:00,86.0,38.0,-100.00,East,86,11.0,16.0,18,0.00,,,0.00,987.000000,,2013-07-09 23:22:00,
2013-07-09 17:30:00,85.0,41.0,-100.00,ENE,77,11.0,16.0,21,0.00,,,0.00,838.000000,,2013-07-09 23:30:00,
2013-07-09 17:53:00,85.0,41.0,-100.00,ENE,77,11.0,16.0,21,0.00,,,0.00,838.000000,,2013-07-09 23:53:00,
2013-07-09 18:01:00,85.0,41.0,-100.00,ENE,77,11.0,16.0,21,0.00,,,0.00,838.000000,,2013-07-10 00:01:00,
2013-07-09 18:11:00,85.0,41.0,-100.00,ENE,77,11.0,16.0,21,0.00,,,0.00,838.000000,,2013-07-10 00:11:00,
2013-07-09 18:22:00,85.0,41.0,-100.00,ENE,77,11.0,16.0,21,0.00,,,0.00,838.000000,,2013-07-10 00:22:00,
2013-07-09 18:30:00,84.0,42.0,-100.00,ENE,69,10.0,16.0,23,0.00,,,0.00,661.000000,,2013-07-10 00:30:00,
2013-07-09 19:01:00,84.0,42.0,-100.00,ENE,69,10.0,16.0,23,0.00,,,0.00,661.000000,,2013-07-10 01:01:00,
2013-07-09 19:11:00,84.0,42.0,-100.00,ENE,69,10.0,16.0,23,0.00,,,0.00,661.000000,,2013-07-10 01:11:00,
2013-07-09 19:22:00,84.0,42.0,-100.00,ENE,69,10.0,16.0,23,0.00,,,0.00,661.000000,,2013-07-10 01:22:00,
2013-07-09 19:30:00,82.0,42.0,-100.00,ENE,66,10.0,19.0,24,0.00,,,0.00,453.000000,,2013-07-10 01:30:00,
2013-07-09 20:01:00,82.0,42.0,-100.00,ENE,66,10.0,19.0,24,0.00,,,0.00,453.000000,,2013-07-10 02:01:00,
2013-07-09 20:11:00,82.0,42.0,-100.00,ENE,66,10.0,19.0,24,0.00,,,0.00,453.000000,,2013-07-10 02:11:00,
2013-07-09 20:22:00,82.0,42.0,-100.00,ENE,66,10.0,19.0,24,0.00,,,0.00,453.000000,,2013-07-10 02:22:00,
2013-07-09 20:30:00,79.0,41.0,-100.00,ENE,65,9.0,17.0,26,0.00,,,0.00,248.000000,,2013-07-10 02:30:00,
2013-07-09 20:53:00,79.0,41.0,-100.00,ENE,65,9.0,17.0,26,0.00,,,0.00,248.000000,,2013-07-10 02:53:00,
2013-07-09 21:01:00,79.0,41.0,-100.00,ENE,65,9.0,17.0,26,0.00,,,0.00,248.000000,,2013-07-10 03:01:00,
2013-07-09 21:11:00,79.0,41.0,-100.00,ENE,65,9.0,17.0,26,0.00,,,0.00,248.000000,,2013-07-10 03:11:00,
2013-07-09 21:22:00,79.0,41.0,-100.00,ENE,65,9.0,17.0,26,0.00,,,0.00,248.000000,,2013-07-10 03:22:00,
2013-07-09 21:30:00,76.0,41.0,-100.00,ENE,68,12.0,14.0,29,0.00,,,0.00,13.000000,,2013-07-10 03:30:00,
2013-07-09 21:52:00,76.0,41.0,-100.00,ENE,68,12.0,14.0,29,0.00,,,0.00,13.000000,,2013-07-10 03:52:00,
2013-07-09 22:01:00,76.0,41.0,-100.00,ENE,68,12.0,14.0,29,0.00,,,0.00,13.000000,,2013-07-10 04:01:00,
2013-07-09 22:11:00,76.0,41.0,-100.00,ENE,68,12.0,14.0,29,0.00,,,0.00,13.000000,,2013-07-10 04:11:00,
2013-07-09 22:22:00,76.0,41.0,-100.00,ENE,68,12.0,14.0,29,0.00,,,0.00,13.000000,,2013-07-10 04:22:00,
2013-07-09 22:30:00,71.0,41.0,-100.00,East,81,9.0,14.0,34,0.00,,,0.00,0.000000,,2013-07-10 04:30:00,
2013-07-09 23:02:00,71.0,41.0,-100.00,East,81,9.0,14.0,34,0.00,,,0.00,0.000000,,2013-07-10 05:02:00,
2013-07-09 23:11:00,71.0,41.0,-100.00,East,81,9.0,14.0,34,0.00,,,0.00,0.000000,,2013-07-10 05:11:00,
2013-07-09 23:22:00,71.0,41.0,-100.00,East,81,9.0,14.0,34,0.00,,,0.00,0.000000,,2013-07-10 05:22:00,
2013-07-09 23:30:00,62.0,41.0,-100.00,West,276,3.0,10.0,46,0.00,,,0.00,0.000000,,2013-07-10 05:30:00,
2013-07-09 23:53:00,62.0,41.0,-100.00,West,276,3.0,10.0,46,0.00,,,0.00,0.000000,,2013-07-10 05:53:00,